Date,TemperatureHighF,TemperatureAvgF,TemperatureLowF,DewpointHighF,DewpointAvgF,DewpointLowF,HumidityHigh,HumidityAvg,HumidityLow,PressureMaxIn,PressureMinIn,WindSpeedMaxMPH,WindSpeedAvgMPH,GustSpeedMaxMPH,PrecipitationSumIn
2013-1-5,44.8,32.7,21.2,26.8,19.2,14.3,75,58,41,30.87,30.69,9,1,9,0.01
2013-1-6,45.5,31.9,22.1,32.0,23.6,15.1,86,72,51,30.83,30.54,5,1,6,0.00
2013-1-7,42.8,29.4,21.6,30.6,19.6,14.7,87,68,40,31.01,30.58,10,1,11,0.01
2013-1-8,47.7,33.4,20.5,29.0,24.1,15.3,83,70,47,30.98,30.86,7,1,8,0.00
2013-1-9,43.7,34.1,21.7,34.4,26.6,17.4,84,74,57,31.00,30.59,4,1,7,0.00
2013-1-10,44.4,39.7,35.8,29.3,24.6,21.2,66,55,43,30.96,30.14,11,3,14,0.00
2013-1-11,39.9,32.4,24.4,33.6,24.5,17.2,89,73,57,31.13,30.82,2,0,2,0.09
2013-1-12,42.8,39.2,36.1,41.8,37.9,33.7,97,95,90,30.83,30.73,2,0,2,0.02
2013-1-13,51.8,45.4,39.0,49.9,44.5,38.4,100,97,91,30.75,30.60,3,1,3,0.01
2013-1-14,62.2,51.0,41.4,52.3,43.2,29.2,95,76,52,30.85,30.49,7,2,7,0.00
2013-1-15,41.9,36.8,31.3,30.5,25.4,22.2,81,64,50,30.92,30.81,5,1,5,0.00
2013-1-16,33.6,32.5,30.4,29.8,27.9,22.9,88,83,65,30.83,30.43,2,0,2,0.00
2013-1-17,41.9,34.7,29.3,35.0,26.2,12.4,90,72,46,30.68,30.43,12,1,15,0.20
2013-1-18,30.6,22.6,16.3,12.3,-3.8,-12.3,47,31,21,31.05,30.64,11,3,12,0.00
2013-1-19,50.5,36.2,19.6,30.4,19.9,1.7,72,52,34,30.98,30.51,9,3,10,0.01
2013-1-20,55.2,41.7,27.9,31.3,23.5,4.6,70,49,31,30.53,30.16,11,3,14,0.01
2013-1-21,29.5,25.4,19.8,16.6,5.4,-3.9,75,44,24,30.70,30.39,5,2,8,0.00
2013-1-22,29.3,20.2,10.4,16.6,0.9,-12.2,76,46,22,30.68,30.34,8,2,8,0.00
2013-1-23,18.5,11.0,5.2,-6.2,-14.6,-20.7,46,30,23,30.74,30.65,8,2,11,0.00
2013-1-24,21.2,10.9,0.9,-9.0,-15.5,-20.0,45,29,21,30.83,30.65,12,2,14,0.00
2013-1-25,25.7,16.4,5.9,7.0,-11.0,-20.7,65,29,21,30.90,30.64,8,1,9,0.00
2013-1-26,27.0,16.6,7.0,6.9,-4.3,-15.6,66,42,21,30.84,30.58,8,2,10,0.00
2013-1-27,31.6,19.9,11.7,0.4,-4.5,-8.7,47,34,22,31.07,30.83,11,2,11,0.00
2013-1-28,32.2,23.8,14.2,22.8,8.8,-3.3,81,55,25,31.06,30.61,4,1,4,0.00
2013-1-29,34.2,30.5,25.9,29.0,25.1,20.3,86,80,74,30.81,30.60,4,1,6,0.06
2013-1-30,60.6,49.1,32.7,56.8,46.2,29.0,97,90,82,30.76,30.07,10,3,13,0.18
2013-1-31,61.0,48.0,30.6,57.8,37.6,14.2,93,69,40,30.20,29.60,17,5,24,0.63
2013-2-1,36.0,28.5,21.6,15.2,5.2,-3.7,53,37,23,30.69,30.20,8,2,10,0.00
2013-2-2,33.3,24.9,16.5,7.2,1.2,-5.4,49,36,23,30.86,30.66,8,2,9,0.00
2013-2-3,28.8,24.7,20.3,17.9,15.1,6.7,75,66,43,30.66,30.33,6,2,7,0.00
2013-2-4,32.9,23.7,16.0,17.0,7.0,-3.2,76,51,25,30.55,30.31,8,2,11,0.00
2013-2-5,27.3,24.3,21.0,17.9,9.9,4.2,75,54,44,30.62,30.53,4,1,5,0.00
2013-2-6,43.7,30.2,24.1,28.0,15.4,1.0,78,56,34,30.90,30.50,4,1,10,0.02
2013-2-7,33.8,24.5,15.3,6.2,-1.0,-6.6,53,33,22,31.12,30.89,5,1,10,0.00
2013-2-8,32.7,28.6,18.1,29.6,21.6,5.7,91,76,46,31.08,30.15,21,4,28,0.00
2013-2-9,24.8,19.7,14.2,16.4,8.9,-3.6,83,64,42,30.80,30.12,13,5,26,0.00
2013-2-10,43.0,21.1,2.5,12.3,1.6,-9.2,67,46,21,31.00,30.80,4,0,8,0.06
2013-2-11,43.9,31.3,11.8,42.0,26.3,3.1,95,82,64,30.96,30.21,4,0,7,0.13
2013-2-12,46.8,37.4,28.8,39.3,27.3,21.6,95,68,43,30.50,30.22,7,1,10,0.00
2013-2-13,48.7,33.6,23.5,33.2,21.0,16.8,78,61,35,30.48,30.29,4,0,5,0.00
2013-2-14,50.9,35.3,25.9,24.3,18.7,11.1,78,53,26,30.60,30.31,7,1,10,0.00
2013-2-15,55.0,36.5,23.4,35.3,26.4,16.3,87,69,39,30.61,30.50,5,1,8,0.00
2013-2-16,37.8,33.7,28.6,29.3,24.2,12.6,87,69,43,30.56,30.28,8,2,14,0.02
2013-2-17,30.0,22.3,16.7,19.2,5.2,-9.5,78,51,26,30.29,29.99,11,3,20,0.00
2013-2-18,36.7,22.6,14.2,2.9,-4.3,-8.6,47,31,21,30.77,30.29,6,1,14,0.01
2013-2-19,48.7,35.1,18.3,40.9,22.4,-1.8,95,62,35,30.77,30.18,5,1,7,0.22
2013-2-20,41.7,32.5,25.0,37.8,16.1,2.9,95,54,29,30.39,30.14,7,1,11,0.01
2013-2-21,38.7,28.7,23.5,11.8,7.5,3.3,52,41,25,30.79,30.38,12,2,17,0.00
2013-2-22,42.3,31.3,23.2,20.9,16.3,9.7,70,54,38,30.98,30.79,8,1,11,0.00
2013-2-23,39.6,33.8,27.9,30.7,25.5,18.0,89,72,58,30.93,30.50,4,0,7,0.05
2013-2-24,37.8,34.1,31.3,36.5,31.2,28.3,95,89,86,30.49,30.28,9,2,11,0.40
2013-2-25,45.0,34.7,29.7,34.7,28.2,25.9,89,78,58,30.85,30.49,5,0,7,0.12
2013-2-26,52.7,37.0,28.2,39.8,25.5,20.3,89,65,36,30.94,30.74,6,1,9,0.01
2013-2-27,42.4,39.6,36.0,40.6,36.9,26.4,95,90,68,30.74,30.17,9,3,17,0.76
2013-2-28,45.1,37.0,30.4,37.4,33.0,27.0,94,86,71,30.25,30.12,2,0,4,0.01
2013-3-1,44.6,36.7,29.8,40.1,26.2,21.9,92,67,46,30.28,30.12,8,1,11,0.00
2013-3-2,44.1,37.2,30.9,26.3,23.6,20.2,72,58,44,30.29,30.22,6,1,8,0.00
2013-3-3,46.2,36.2,31.6,27.7,24.3,20.0,83,63,43,30.25,30.16,5,1,8,0.00
2013-3-4,44.4,35.3,28.2,26.2,20.5,16.4,79,55,36,30.34,30.18,9,2,14,0.00
2013-3-5,48.9,36.8,30.9,29.6,23.1,17.7,79,58,40,30.66,30.34,8,2,11,0.00
2013-3-6,40.1,36.6,33.4,34.6,30.5,26.5,89,79,60,30.69,30.62,19,5,24,0.15
2013-3-7,36.1,32.2,30.2,30.1,28.2,25.0,88,85,65,30.63,30.56,14,4,22,0.00
2013-3-8,37.9,31.8,29.5,30.5,27.2,22.2,89,83,58,30.74,30.51,12,3,17,0.02
2013-3-9,50.9,35.7,25.7,27.8,22.0,16.8,81,59,33,30.95,30.73,10,2,14,0.25
2013-3-10,51.8,35.1,23.9,30.3,25.3,18.7,85,69,42,31.01,30.92,6,1,9,0.00
2013-3-11,58.3,42.4,34.7,37.5,33.2,28.4,89,71,42,30.93,30.76,6,1,8,0.00
2013-3-12,57.0,48.3,39.2,51.9,45.0,36.8,94,89,71,30.77,30.34,8,1,13,0.38
2013-3-13,58.3,43.5,29.7,48.2,29.9,18.2,95,63,30,30.40,30.31,8,1,11,0.00
2013-3-14,39.4,30.1,23.2,20.6,9.7,-5.0,73,45,24,30.44,30.32,8,1,11,0.00
2013-3-15,44.6,31.5,20.5,23.7,8.9,0.3,69,40,21,30.48,30.25,8,1,11,0.00
2013-3-16,43.2,34.4,26.2,23.5,10.7,1.6,73,40,22,30.47,30.29,7,1,9,0.00
2013-3-17,44.8,31.7,22.5,15.3,6.3,-5.3,58,36,21,30.91,30.47,11,1,15,0.00
2013-3-18,41.9,29.9,18.0,23.1,3.1,-12.0,76,34,21,31.05,30.83,4,1,7,0.00
2013-3-19,37.4,32.9,28.8,34.5,29.2,22.8,89,86,74,30.82,30.19,10,2,14,0.31
2013-3-20,45.9,32.7,24.3,26.4,17.7,11.1,86,57,26,30.42,30.30,8,1,10,0.01
2013-3-21,39.4,30.9,23.4,25.3,18.1,8.3,80,60,31,30.42,30.21,5,1,7,0.00
2013-3-22,48.2,34.8,26.1,24.1,15.7,9.1,80,48,24,30.36,30.20,8,1,12,0.00
2013-3-23,47.3,35.7,27.3,20.8,15.8,10.4,66,45,25,30.40,30.25,9,1,15,0.00
2013-3-24,53.1,38.4,28.8,22.8,18.0,13.6,65,46,24,30.43,30.32,9,1,11,0.00
2013-3-25,45.0,36.7,28.9,30.9,26.1,20.8,76,66,52,30.37,30.10,15,3,20,0.00
2013-3-26,51.1,40.4,31.5,28.0,21.9,15.3,74,49,27,30.39,30.12,9,2,12,0.00
2013-3-27,58.5,42.2,26.2,27.2,19.4,14.2,66,43,22,30.47,30.34,8,1,13,0.00
2013-3-28,48.7,41.9,36.5,32.7,29.6,26.0,83,63,42,30.63,30.46,7,2,9,0.00
2013-3-29,61.3,45.7,31.1,33.3,27.3,21.9,80,52,24,30.66,30.56,8,1,12,0.00
2013-3-30,60.6,41.3,32.7,30.2,24.5,13.0,71,54,21,30.71,30.60,8,0,11,0.01
2013-3-31,63.3,44.9,25.9,43.2,25.1,15.4,93,51,20,30.72,30.34,8,1,10,0.01
2013-4-1,67.1,48.2,34.5,46.6,38.7,9.7,100,73,35,30.41,30.12,8,1,11,0.27
2013-4-2,46.8,35.1,26.6,20.6,11.8,2.7,63,39,22,30.57,30.41,7,1,12,0.00
2013-4-3,51.1,38.0,29.5,15.3,11.8,5.5,53,35,21,30.78,30.54,8,2,14,0.00
2013-4-4,61.2,42.5,26.2,28.3,16.7,9.5,65,38,19,30.91,30.67,6,1,11,0.00
2013-4-5,61.7,47.4,37.0,31.7,25.8,16.6,75,47,21,30.68,30.23,8,1,14,0.00
2013-4-6,49.5,38.7,28.8,26.4,11.7,0.6,57,35,21,30.94,30.49,11,2,17,0.00
2013-4-7,57.7,40.9,24.6,41.6,27.2,14.6,85,61,27,30.94,30.63,8,2,18,0.00
2013-4-8,69.3,53.5,39.9,46.1,39.9,30.9,100,65,29,30.70,30.57,6,1,9,0.01
2013-4-9,78.8,59.4,47.7,53.3,44.1,38.6,100,62,28,30.70,30.46,7,1,11,0.00
2013-4-10,69.1,54.6,44.2,50.6,46.8,43.2,100,78,47,30.63,30.46,6,1,8,0.07
2013-4-11,54.5,48.0,41.2,47.8,42.6,27.3,100,83,49,30.75,30.43,6,1,9,0.02
2013-4-12,41.4,39.1,37.2,39.8,36.7,30.2,100,92,65,30.76,30.38,9,2,14,0.32
2013-4-13,55.2,44.3,36.0,40.3,37.0,32.4,99,78,44,30.54,30.33,11,2,14,0.04
2013-4-14,56.7,44.8,34.2,42.5,32.4,23.5,100,66,33,30.83,30.53,7,1,11,0.00
2013-4-15,62.4,46.0,28.9,37.6,30.8,25.5,88,60,27,31.01,30.82,4,1,8,0.00
2013-4-16,65.3,51.2,33.1,50.9,41.9,32.5,100,73,46,31.01,30.69,8,2,14,0.00
2013-4-17,70.3,59.5,43.3,53.3,38.1,23.3,88,51,19,30.94,30.68,8,2,14,0.00
2013-4-18,68.2,51.5,34.9,47.0,35.5,26.9,100,62,24,31.02,30.76,6,2,8,0.00
2013-4-19,76.3,63.2,52.2,64.4,58.7,47.0,100,87,58,30.76,30.29,10,2,14,0.00
2013-4-20,65.1,55.0,43.9,63.7,43.6,26.1,100,69,31,30.84,30.23,6,1,14,0.35
2013-4-21,55.2,43.7,32.7,28.3,20.6,14.2,75,43,22,31.29,30.83,9,2,13,0.00
2013-4-22,55.6,42.1,29.3,36.0,28.3,16.9,94,63,23,31.34,31.19,11,2,17,0.00
2013-4-23,42.6,41.2,38.5,42.4,39.3,31.6,100,93,74,31.19,30.70,9,3,14,0.06
2013-4-24,78.1,55.2,41.5,51.5,45.2,38.5,100,75,27,30.70,30.42,8,2,15,0.01
2013-4-25,67.5,55.3,42.1,53.2,36.7,22.4,100,56,22,30.88,30.46,8,1,14,0.04
2013-4-26,67.3,49.5,35.2,42.3,35.4,27.7,95,62,27,31.03,30.87,9,2,13,0.00
2013-4-27,68.2,50.2,33.3,47.1,35.6,27.6,100,64,24,31.03,30.91,5,1,8,0.00
2013-4-28,74.1,53.9,34.3,45.7,32.6,26.2,100,53,19,30.95,30.84,4,1,9,0.00
2013-4-29,72.7,56.2,43.2,48.2,35.6,22.1,100,54,19,30.89,30.82,4,1,8,0.00
2013-4-30,74.5,55.9,37.8,44.2,30.2,18.2,95,47,14,30.98,30.86,9,1,14,0.00
2013-5-1,72.5,54.2,33.4,39.4,32.7,26.7,91,51,20,31.09,30.98,7,1,12,0.00
2013-5-2,80.6,56.6,39.6,48.7,41.1,34.0,100,65,21,31.10,30.95,11,1,16,0.00
2013-5-3,59.4,49.3,39.2,44.2,41.0,37.9,100,75,53,31.12,30.99,11,2,15,0.01
2013-5-4,60.8,47.7,35.1,45.2,36.6,25.9,100,71,31,30.99,30.91,11,2,14,0.00
2013-5-5,65.1,48.1,32.7,43.2,38.0,31.7,99,72,38,30.94,30.85,8,1,11,0.01
2013-5-6,76.3,54.7,36.5,50.3,43.9,35.2,100,72,34,30.89,30.76,4,1,6,0.04
2013-5-7,80.8,61.8,41.7,58.7,51.3,41.5,100,73,41,30.80,30.71,4,1,8,0.00
2013-5-8,76.5,63.3,51.1,64.6,58.5,50.8,100,86,58,30.81,30.66,5,1,11,0.07
2013-5-9,72.0,61.2,57.4,65.3,59.8,57.1,100,96,63,30.67,30.50,4,0,6,0.48
2013-5-10,82.9,67.2,51.8,63.7,56.2,50.0,100,72,36,30.57,30.51,4,0,7,0.00
2013-5-11,73.8,63.4,57.9,63.5,59.9,55.2,100,89,64,30.55,30.32,4,1,9,0.01
2013-5-12,73.6,61.4,47.1,62.4,52.9,33.5,100,77,43,30.44,30.19,4,0,9,0.01
2013-5-13,62.6,50.1,35.6,38.1,31.0,24.6,92,52,25,30.64,30.44,5,1,8,0.00
2013-5-14,61.5,49.5,37.2,36.9,31.0,23.1,85,53,26,30.66,30.58,9,1,14,0.00
2013-5-15,67.3,52.2,33.3,53.2,40.2,28.9,96,69,27,30.67,30.30,5,1,10,0.00
2013-5-16,82.8,66.2,47.5,52.8,44.1,32.8,100,55,17,30.42,30.26,5,1,9,0.00
2013-5-17,69.6,59.0,46.0,49.2,41.8,34.7,89,56,31,30.84,30.42,8,1,11,0.00
2013-5-18,73.8,58.9,40.6,49.9,43.4,32.3,100,63,24,30.92,30.83,3,0,5,0.00
2013-5-19,74.1,59.1,45.7,56.1,50.5,44.8,100,77,41,30.96,30.84,4,0,8,0.05
2013-5-20,82.2,68.8,55.8,66.7,61.9,55.5,100,81,53,30.84,30.53,4,0,6,0.02
2013-5-21,88.5,65.2,52.0,69.4,60.3,52.0,100,87,47,30.62,30.46,6,1,11,0.12
2013-5-22,75.4,60.1,50.9,66.4,57.1,50.6,100,91,70,30.66,30.49,5,0,8,0.01
2013-5-23,76.3,66.7,55.9,70.0,64.0,55.7,100,92,73,30.54,30.44,4,1,8,0.08
2013-5-24,70.5,63.0,48.9,68.3,62.1,48.7,100,97,86,30.44,30.28,5,1,7,0.48
2013-5-25,52.0,47.8,41.2,51.4,47.2,40.9,100,98,93,30.42,29.56,6,1,9,0.13
2013-5-26,59.4,49.1,39.6,42.7,39.9,36.3,100,73,44,30.72,30.33,8,1,17,0.04
2013-5-27,71.6,56.5,37.9,46.9,39.2,28.7,100,61,21,30.78,30.69,6,1,10,0.00
2013-5-28,77.4,60.5,40.5,55.8,45.9,38.1,100,65,25,30.84,30.78,3,0,5,0.00
2013-5-29,75.4,64.5,58.1,68.1,62.1,55.8,100,92,75,30.81,30.61,4,0,6,0.69
2013-5-30,87.8,74.4,62.1,76.0,67.3,61.8,100,81,52,30.71,30.63,4,0,7,0.00
2013-5-31,94.6,78.5,62.2,74.6,67.4,61.8,100,73,38,30.72,30.57,3,0,5,0.00
2013-6-1,92.1,78.4,63.0,70.0,66.2,61.3,97,69,42,30.62,27.56,4,0,8,0.00
2013-6-2,90.0,77.1,67.3,70.5,66.5,63.9,94,72,43,30.52,30.38,6,1,14,0.37
2013-6-3,75.7,68.4,61.0,69.8,66.0,56.8,100,92,76,30.48,30.39,3,0,4,0.34
2013-6-4,71.1,61.0,48.2,57.1,46.5,42.1,94,62,36,30.72,30.45,5,1,8,0.00
2013-6-5,74.7,61.5,45.7,53.9,47.9,40.8,100,66,33,30.81,30.71,4,0,5,0.00
2013-6-6,76.8,63.4,51.3,56.0,51.5,46.6,95,68,41,30.81,30.72,4,0,7,0.00
2013-6-7,60.4,56.5,54.3,60.2,55.9,53.5,100,98,91,30.73,30.41,5,1,7,1.77
2013-6-8,76.5,62.9,53.8,67.6,59.1,53.0,100,89,68,30.63,30.21,4,1,7,0.30
2013-6-9,80.4,66.9,52.9,62.3,56.9,52.8,100,74,42,30.79,30.63,4,0,6,0.00
2013-6-10,71.6,61.5,52.2,64.1,58.5,52.0,100,91,62,30.82,30.62,3,0,5,0.51
2013-6-11,66.2,59.7,56.7,64.0,59.1,56.4,100,98,88,30.62,30.17,4,0,6,0.65
2013-6-12,70.3,62.9,56.7,60.2,55.6,51.9,99,79,54,30.43,30.17,8,1,12,0.01
2013-6-13,64.8,55.9,49.1,60.5,54.4,48.8,100,95,82,30.43,30.26,3,0,6,0.59
2013-6-14,69.8,58.9,52.0,60.2,54.5,50.2,100,87,59,30.39,30.22,5,1,9,0.74
2013-6-15,77.9,65.0,52.2,58.5,50.2,40.9,100,65,29,30.56,30.39,4,0,6,0.00
2013-6-16,76.3,64.7,48.9,64.0,56.4,48.8,100,77,47,30.56,30.34,3,0,5,0.00
2013-6-17,86.2,69.9,56.5,66.0,61.5,56.2,100,79,41,30.54,30.40,5,0,10,0.33
2013-6-18,80.2,63.5,57.9,70.2,60.9,57.7,100,92,62,30.57,30.48,5,0,9,0.51
2013-6-19,73.8,64.0,54.7,60.2,54.4,46.8,99,75,41,30.77,30.50,4,1,6,0.01
2013-6-20,79.2,65.2,48.9,57.9,52.9,46.5,100,69,33,30.88,30.76,3,0,5,0.00
2013-6-21,83.1,69.9,55.2,67.8,61.1,53.8,96,75,53,30.89,30.82,4,0,7,0.00
2013-6-22,83.7,71.3,59.4,64.2,60.1,56.3,94,70,46,30.85,30.75,3,0,6,0.01
2013-6-23,89.2,75.8,61.5,72.4,65.6,57.0,91,72,52,30.80,30.64,3,0,8,0.05
2013-6-24,92.7,79.6,68.0,74.0,70.5,63.3,100,76,49,30.67,30.51,4,0,7,0.17
2013-6-25,90.5,77.5,66.7,74.1,69.8,66.5,100,80,49,30.56,30.36,4,0,8,0.00
2013-6-26,88.5,76.5,68.7,73.2,70.0,67.4,100,82,53,30.48,30.35,3,0,7,0.00
2013-6-27,70.0,66.3,63.7,67.7,65.3,62.8,100,97,90,30.48,30.37,4,0,7,0.00
2013-6-28,81.0,71.2,63.1,74.9,68.5,62.3,100,92,71,30.37,30.12,6,1,10,0.35
2013-6-29,82.8,74.9,70.3,72.2,69.4,65.5,100,84,60,30.35,30.14,4,1,8,0.00
2013-6-30,84.0,75.4,70.0,73.5,70.6,67.9,97,85,69,30.57,30.35,4,1,8,0.02
2013-7-1,84.4,75.2,71.1,75.7,72.8,70.7,100,93,71,30.71,30.56,4,0,8,0.02
2013-7-2,82.8,75.8,68.9,75.4,72.0,65.6,97,88,74,30.82,30.70,2,0,5,0.00
2013-7-3,88.5,75.8,64.4,75.6,70.6,64.3,100,85,60,30.84,30.77,3,0,7,0.00
2013-7-4,92.3,81.5,71.6,76.5,73.8,70.7,99,79,53,30.84,30.73,4,0,6,0.00
2013-7-5,94.3,83.0,73.8,76.7,73.6,70.7,95,75,49,30.79,30.67,4,0,6,0.00
2013-7-6,80.6,80.6,80.6,74.3,74.3,74.3,81,81,81,30.69,30.69,0,0,0,0.00
2013-7-7,92.1,80.4,73.2,77.3,74.4,71.4,100,83,53,30.69,30.53,2,0,4,0.00
2013-7-8,90.0,77.1,66.7,76.5,71.8,66.5,100,85,54,30.69,30.53,4,0,6,0.44
2013-7-9,75.2,69.3,66.2,71.3,67.8,65.9,100,95,86,30.73,30.66,2,0,4,0.00
2013-7-10,86.5,75.3,67.8,77.1,71.8,66.9,100,90,67,30.69,30.42,4,0,8,0.00
2013-7-11,80.2,74.7,69.6,76.2,72.7,68.3,100,94,81,30.55,30.41,2,0,4,0.19
2013-7-12,74.5,69.6,65.5,69.5,63.2,58.8,100,81,67,30.81,30.54,8,1,10,0.00
2013-7-13,75.7,68.1,65.5,72.3,66.8,62.7,99,96,87,30.93,30.81,2,0,4,0.04
2013-7-14,89.6,81.8,71.6,76.4,73.1,69.1,99,76,54,30.92,30.82,4,0,5,0.00
2013-7-15,92.7,80.3,71.1,76.4,72.9,69.3,100,80,50,30.83,30.72,4,0,6,0.00
2013-7-16,93.9,80.3,67.3,75.5,70.2,64.5,100,75,43,30.79,30.72,4,0,5,0.00
2013-7-17,94.5,80.8,68.7,75.7,71.6,67.5,100,76,46,30.80,30.64,4,0,6,0.00
2013-7-18,95.5,82.5,72.7,77.6,73.4,69.4,95,76,45,30.64,30.56,3,0,5,0.00
2013-7-19,96.3,84.5,73.6,78.4,75.4,72.0,100,77,48,30.58,30.36,4,0,9,0.00
2013-7-20,94.3,82.1,73.0,78.0,75.6,71.3,96,82,54,30.44,30.27,4,0,6,0.00
2013-7-21,85.6,76.0,68.9,71.1,67.8,62.9,95,77,49,30.61,30.44,3,0,5,0.00
2013-7-22,87.6,74.4,65.8,72.3,68.4,64.0,100,83,48,30.63,30.50,4,0,5,0.00
2013-7-23,83.1,73.6,70.5,79.8,72.7,68.8,100,97,82,30.50,30.15,0,0,0,1.19
2013-7-24,86.7,75.9,69.3,78.3,69.5,57.3,100,82,59,30.57,30.20,0,0,0,0.01
2013-7-25,69.1,61.5,58.8,60.3,55.7,49.4,100,82,64,30.70,30.57,0,0,0,0.18
2013-7-26,71.2,64.1,59.4,67.8,63.2,59.1,100,97,86,30.66,30.55,0,0,0,0.30
2013-7-27,84.4,70.8,58.6,69.3,64.5,58.4,100,82,53,30.68,30.62,0,0,0,0.05
2013-7-28,84.9,73.0,64.4,71.7,68.7,63.4,100,87,57,30.64,30.58,0,0,0,0.00
2013-7-29,84.2,72.7,64.6,76.7,69.7,64.3,100,91,63,30.66,30.59,0,0,0,0.54
2013-7-30,83.5,70.9,59.9,68.4,61.3,56.1,100,75,44,30.73,30.66,0,0,0,0.00
2013-7-31,84.2,70.3,57.2,65.7,60.9,56.4,100,75,44,30.75,30.66,0,0,0,0.00
2013-8-1,84.9,70.4,60.3,67.6,62.6,59.5,100,78,47,30.68,30.50,0,0,1,0.00
2013-8-2,82.8,71.2,64.0,72.5,64.5,60.8,100,81,52,30.50,30.42,0,0,0,0.19
2013-8-3,78.4,69.9,63.5,66.0,64.0,60.8,100,82,62,30.50,30.41,0,0,0,0.00
2013-8-4,82.6,68.3,57.0,62.7,57.7,55.1,97,72,42,30.51,30.39,0,0,0,0.00
2013-8-5,76.8,63.7,52.2,57.6,50.0,39.9,100,66,30,30.66,30.51,0,0,0,0.00
2013-8-6,82.6,64.4,47.8,59.3,52.2,47.0,100,69,33,30.77,30.66,0,0,0,0.00
2013-8-7,81.9,66.7,52.0,64.2,55.0,47.6,100,71,33,30.80,30.74,3,0,4,0.00
2013-8-8,79.7,71.4,63.5,72.0,67.4,57.2,100,87,74,30.75,30.64,3,0,5,0.06
2013-8-9,75.2,72.8,71.1,75.0,71.7,69.5,100,96,92,30.66,30.38,4,0,8,1.20
2013-8-10,84.7,72.5,58.6,75.2,64.8,56.0,100,79,48,30.63,30.42,4,0,6,0.01
2013-8-11,81.7,66.4,52.3,62.6,56.3,50.5,100,74,36,30.70,30.63,3,0,4,0.07
2013-8-12,83.8,69.4,57.4,65.3,60.4,55.9,100,76,41,30.66,30.54,2,0,4,0.01
2013-8-13,73.6,67.0,61.5,69.3,64.5,60.6,100,92,74,30.55,30.31,2,0,4,0.00
2013-8-14,75.9,66.2,57.2,63.2,55.6,51.6,100,71,47,30.59,30.29,5,0,9,0.00
2013-8-15,80.8,63.9,51.4,58.9,53.4,49.6,100,73,38,30.74,30.58,3,0,4,0.00
2013-8-16,83.7,65.7,51.8,60.4,55.7,51.5,100,74,40,30.82,30.72,3,0,4,0.00
2013-8-17,83.3,66.8,52.2,62.5,57.7,52.2,100,76,45,30.90,30.82,4,0,4,0.02
2013-8-18,81.9,67.2,56.8,65.9,60.5,55.9,100,81,43,30.90,30.71,2,0,3,0.00
2013-8-19,87.3,69.7,56.7,67.0,61.2,56.4,100,77,44,30.71,30.58,2,0,4,0.00
2013-8-20,90.7,73.2,61.3,67.2,63.1,59.1,96,74,42,30.72,30.60,2,0,4,0.00
2013-8-21,92.1,73.2,58.8,69.4,64.3,58.6,100,77,43,30.76,30.66,3,0,4,0.00
2013-8-22,89.6,74.2,63.1,72.6,68.4,62.3,97,83,54,30.67,30.46,3,0,4,0.00
2013-8-23,81.7,71.8,61.0,69.6,61.8,53.8,100,73,42,30.74,30.44,4,1,7,0.00
2013-8-24,79.7,64.4,52.3,54.0,50.2,42.2,92,64,34,30.96,30.74,4,0,7,0.06
2013-8-25,88.2,66.1,48.7,60.8,53.8,48.7,100,70,33,30.98,30.82,4,0,5,0.00
2013-8-26,81.5,70.3,62.8,68.2,63.1,56.9,89,79,53,30.82,30.50,3,0,5,0.00
2013-8-27,80.6,71.5,63.3,72.8,67.9,62.5,100,89,67,30.52,30.45,3,0,4,0.06
2013-8-28,89.6,72.0,59.7,70.4,64.4,59.5,100,80,48,30.60,30.48,4,0,6,0.00
2013-8-29,67.3,64.2,61.3,66.0,62.6,58.6,100,95,88,30.68,30.56,4,1,7,0.00
2013-8-30,81.0,69.0,61.2,68.5,63.9,58.8,96,85,62,30.65,30.46,3,0,5,0.00
2013-8-31,81.7,73.6,66.0,73.8,70.7,65.4,100,91,74,30.47,30.42,3,0,4,0.00
2013-9-1,77.4,72.7,69.4,77.4,72.0,69.2,100,98,93,30.52,30.42,4,0,8,0.18
2013-9-2,81.7,74.1,69.1,75.7,72.0,68.8,100,93,76,30.49,30.34,4,0,6,0.13
2013-9-3,86.0,72.4,62.6,73.0,69.2,60.3,100,90,61,30.44,30.32,4,0,7,0.00
2013-9-4,87.3,67.7,55.8,63.7,58.7,55.5,100,77,39,30.55,30.43,4,0,4,0.01
2013-9-5,72.0,61.6,51.3,64.6,57.1,49.7,100,87,51,30.76,30.48,4,0,6,0.04
2013-9-6,76.5,56.4,42.3,51.1,45.0,36.3,100,71,27,30.86,30.71,3,0,5,0.00
2013-9-7,83.7,62.8,46.2,58.5,51.9,45.3,97,72,36,30.71,30.48,3,0,5,0.00
2013-9-8,83.5,65.4,48.2,63.8,53.4,40.4,94,67,35,30.71,30.37,7,1,8,0.00
2013-9-9,75.7,56.6,40.3,52.2,45.5,39.1,100,71,29,30.85,30.70,3,0,5,0.00
2013-9-10,76.3,66.3,54.0,69.7,62.5,50.1,97,88,79,30.78,30.66,3,0,5,0.00
2013-9-11,99.5,79.9,65.8,76.7,71.3,65.6,100,78,45,30.70,30.57,2,0,4,0.00
2013-9-12,91.4,77.4,69.1,73.8,70.5,67.8,100,81,55,30.60,30.31,4,1,9,0.31
2013-9-13,70.2,68.3,60.8,70.2,67.6,55.3,100,98,82,30.38,30.22,0,0,0,0.06
2013-9-14,76.6,61.0,50.5,56.8,53.6,49.7,97,78,46,30.67,30.37,4,0,6,0.00
2013-9-15,76.6,58.7,44.8,57.9,50.2,44.0,100,77,43,30.78,30.67,3,0,4,0.00
2013-9-16,67.3,57.2,49.5,60.1,51.4,38.6,96,82,61,30.85,30.63,6,0,10,0.00
2013-9-17,66.6,51.3,40.3,44.1,38.5,31.7,95,65,32,31.02,30.85,5,1,8,0.00
2013-9-18,81.9,55.9,37.0,54.8,43.8,35.5,100,71,25,30.94,30.76,3,0,4,0.00
2013-9-19,87.8,61.6,43.3,57.6,50.7,42.9,100,73,32,30.76,30.65,3,0,4,0.00
2013-9-20,88.9,63.4,46.0,61.3,52.8,45.2,100,74,31,30.69,30.61,2,0,4,0.00
2013-9-21,75.9,65.7,52.7,66.9,60.7,51.0,100,85,61,30.65,30.35,5,1,10,0.00
2013-9-22,72.1,63.4,49.1,68.9,59.7,45.7,100,88,56,30.44,30.23,4,1,8,0.53
2013-9-23,70.7,53.8,41.5,47.0,43.1,38.1,97,71,35,30.61,30.44,4,1,7,0.00
2013-9-24,70.9,54.4,39.7,48.3,42.7,38.4,96,69,36,30.60,30.41,4,0,7,0.00
2013-9-25,73.8,56.3,42.4,52.6,47.5,42.0,100,76,42,30.59,30.48,7,0,8,0.00
2013-9-26,73.0,57.5,50.7,51.8,49.5,45.4,95,76,41,30.73,30.59,3,0,4,0.00
2013-9-27,65.3,57.2,46.9,53.5,51.1,46.1,97,81,63,30.87,30.73,4,0,7,0.00
2013-9-28,81.9,57.2,42.8,60.0,49.2,42.8,100,79,42,30.93,30.86,4,0,8,0.00
2013-9-29,75.2,53.8,43.9,58.2,47.2,43.8,100,82,41,30.88,30.73,4,0,5,0.01
2013-9-30,74.3,56.6,45.5,58.9,49.9,44.2,100,82,41,30.73,30.56,3,0,5,0.00
2013-10-1,83.8,59.0,41.0,60.2,49.6,40.7,100,77,31,30.57,30.45,4,0,5,0.00
2013-10-2,87.3,64.8,49.1,63.9,56.6,48.8,100,79,43,30.57,30.45,4,0,5,0.00
2013-10-3,87.1,62.7,48.0,59.8,52.0,44.0,100,74,24,30.70,30.57,2,0,4,0.00
2013-10-4,62.1,54.6,47.1,59.6,53.3,46.5,100,96,75,30.70,30.64,2,0,3,0.12
2013-10-5,73.2,61.3,55.2,63.1,58.3,54.4,100,90,62,30.74,30.66,2,0,4,0.01
2013-10-6,59.9,57.6,55.8,59.6,57.3,55.5,100,99,95,30.83,30.72,2,0,4,0.27
2013-10-7,77.7,65.8,56.5,72.9,63.3,56.2,100,92,75,30.73,30.45,8,1,14,0.04
2013-10-8,73.0,57.4,43.7,56.6,47.0,40.9,97,72,35,30.97,30.52,4,0,7,0.01
2013-10-9,65.7,49.9,39.6,48.1,43.1,39.3,100,81,45,31.05,30.96,8,1,10,0.00
2013-10-10,64.6,52.6,41.4,53.7,48.9,41.1,100,88,67,30.96,30.77,6,1,8,0.00
2013-10-11,54.9,50.3,48.7,52.9,47.9,46.6,94,91,87,30.77,30.74,1,0,2,0.00
2013-10-12,63.5,54.4,46.4,57.3,52.0,45.8,100,92,77,30.99,30.74,8,1,11,0.00
2013-10-13,64.2,52.1,38.8,53.1,45.9,38.1,97,81,53,31.04,30.97,6,1,12,0.01
2013-10-14,71.1,48.8,32.7,50.5,40.0,31.5,100,76,34,31.01,30.85,3,0,4,0.00
2013-10-15,75.2,56.9,45.0,55.4,48.9,44.2,100,77,41,30.87,30.78,4,0,5,0.00
2013-10-16,62.8,54.0,43.5,56.7,51.6,43.5,100,92,74,30.78,30.51,4,0,4,0.00
2013-10-17,77.2,60.7,50.4,66.8,56.7,50.1,100,88,59,30.53,30.34,3,0,4,0.00
2013-10-18,73.9,60.6,44.1,62.4,51.7,42.1,100,76,39,30.52,30.23,7,0,9,0.02
2013-10-19,72.5,53.5,36.9,54.0,43.0,35.6,100,72,33,30.58,30.36,4,0,5,0.00
2013-10-20,68.7,52.9,38.3,48.9,39.6,30.5,100,65,28,30.63,30.30,7,0,8,0.00
2013-10-21,73.8,50.7,34.3,49.7,38.5,31.8,97,67,29,30.71,30.60,3,0,4,0.00
2013-10-22,72.0,53.0,37.4,56.0,44.7,37.1,100,77,41,30.60,30.31,5,0,8,0.00
2013-10-23,55.9,43.8,34.5,46.6,35.8,32.3,100,75,47,30.40,30.19,2,0,4,0.00
2013-10-24,59.7,43.7,34.2,39.8,29.8,22.1,93,61,28,30.50,30.24,4,0,7,0.00
2013-10-25,55.4,39.1,28.9,40.8,28.0,23.6,89,66,43,30.77,30.49,8,0,14,0.00
2013-10-26,60.1,42.0,26.1,40.7,28.5,22.7,92,63,26,30.76,30.48,5,0,18,0.64
2013-10-27,60.6,46.9,33.6,48.1,34.5,26.9,94,65,38,30.67,30.42,7,0,9,0.01
2013-10-28,63.3,44.7,29.5,44.6,30.7,24.1,93,62,31,30.95,30.67,4,1,10,0.00
2013-10-29,53.6,37.0,27.1,29.1,22.7,17.5,82,59,30,31.04,30.95,6,0,8,0.00
2013-10-30,55.2,39.4,27.0,43.2,34.1,20.7,94,82,59,30.97,30.78,2,0,4,0.00
2013-10-31,62.6,48.4,30.4,60.5,46.0,29.1,100,91,79,30.84,30.41,4,0,8,0.01
2013-11-1,71.1,64.0,55.2,63.0,58.2,52.5,100,82,67,30.42,30.08,8,1,13,0.09
2013-11-2,71.2,55.2,46.0,54.0,46.6,35.7,100,77,34,30.33,30.19,3,0,4,0.00
2013-11-3,51.4,42.3,32.4,45.9,29.0,8.6,92,62,28,31.01,30.32,7,2,10,0.00
2013-11-4,45.9,32.8,23.5,20.0,14.9,8.5,76,50,23,31.30,31.01,8,1,12,0.00
2013-11-5,53.8,35.7,22.3,31.1,24.9,16.6,85,67,38,31.31,31.11,3,0,4,0.00
2013-11-6,62.4,49.0,34.5,50.8,40.5,29.4,92,74,47,31.12,30.65,5,0,9,0.00
2013-11-7,70.0,54.6,41.4,60.4,51.9,39.6,100,91,63,30.66,30.28,6,0,9,0.15
2013-11-8,50.4,40.4,28.4,36.6,27.9,20.1,90,62,45,30.70,30.42,7,1,9,0.00
2013-11-9,49.1,35.8,24.8,33.7,23.6,19.1,86,63,35,30.81,30.63,8,0,10,0.00
2013-11-10,57.2,45.4,39.2,47.9,36.7,30.0,96,72,51,30.63,30.34,5,0,8,0.01
2013-11-11,54.5,45.3,36.7,34.3,28.7,23.1,68,53,32,30.70,30.47,4,1,8,0.00
2013-11-12,49.3,36.0,25.9,38.9,24.8,11.6,90,65,46,30.79,30.49,8,1,10,0.05
2013-11-13,38.5,28.3,22.8,18.0,11.7,7.1,65,50,30,30.87,30.77,8,1,9,0.00
2013-11-14,51.6,37.6,25.3,25.5,19.4,12.7,63,49,26,30.77,30.64,4,0,6,0.00
2013-11-15,62.8,43.2,26.2,32.7,22.8,15.8,80,49,19,30.80,30.71,3,0,7,0.00
2013-11-16,63.5,42.7,31.6,37.3,30.1,22.0,86,65,24,30.93,30.79,4,0,5,0.00
2013-11-17,61.5,47.4,30.4,58.0,43.4,26.7,99,87,65,30.91,30.44,4,0,6,0.04
2013-11-18,68.9,57.6,46.4,62.4,49.7,33.3,100,77,46,30.44,30.15,4,1,8,0.18
2013-11-19,46.4,39.8,30.9,33.5,22.0,15.4,64,49,31,30.88,30.26,11,2,15,0.00
2013-11-20,42.6,30.9,20.7,15.8,10.8,4.7,66,45,24,31.22,30.88,7,1,11,0.00
2013-11-21,50.2,31.9,18.5,27.7,18.7,9.6,77,60,33,31.23,30.98,3,0,4,0.00
2013-11-22,48.6,42.7,36.1,48.3,40.3,27.7,100,92,71,30.98,30.42,1,0,2,0.07
2013-11-23,49.1,40.3,29.3,45.4,26.4,11.2,100,60,25,30.51,30.39,7,1,11,0.01
2013-11-24,30.2,24.3,19.6,13.9,-0.8,-8.6,55,35,21,30.79,30.40,13,2,22,0.00
2013-11-25,36.1,24.5,15.8,15.9,-0.9,-10.1,56,34,21,30.96,30.79,7,1,11,0.00
2013-11-26,42.4,36.1,29.7,40.4,22.7,15.2,100,60,43,30.92,30.61,3,0,5,0.07
2013-11-27,61.3,51.7,36.3,61.0,51.1,32.1,100,98,84,30.61,29.82,9,2,15,1.55
2013-11-28,36.9,30.2,22.5,32.0,14.6,1.8,85,53,28,31.04,30.08,8,0,11,0.00
2013-11-29,36.9,27.5,21.4,16.9,6.3,-8.1,62,42,22,31.35,31.03,6,1,8,0.00
2013-11-30,38.3,24.8,14.0,21.7,9.4,0.8,69,52,35,31.38,31.04,4,0,7,0.72
2013-12-1,39.7,34.6,28.8,38.2,30.7,19.6,95,86,68,31.04,30.61,4,0,6,0.15
2013-12-2,41.0,37.4,35.8,40.6,36.2,34.1,100,95,92,30.61,30.51,4,1,4,0.00
2013-12-3,48.7,37.5,30.2,37.4,32.9,27.4,97,84,54,30.54,30.44,7,1,9,0.00
2013-12-4,30.4,30.4,30.4,27.5,27.5,27.5,89,89,89,30.54,30.54,0,0,0,0.00
2013-12-5,30.4,30.4,30.4,27.5,27.5,27.5,89,89,89,30.54,30.54,0,0,0,0.00
2013-12-6,30.4,30.4,30.4,27.5,27.5,27.5,89,89,89,30.54,30.54,0,0,0,0.00
2013-12-7,30.4,30.4,30.4,27.5,27.5,27.5,89,89,89,30.54,30.54,0,0,0,0.00
2013-12-8,40.6,31.3,28.4,40.1,20.6,12.5,100,66,48,30.01,28.73,3,0,4,0.00
2013-12-9,38.3,32.5,26.1,37.0,28.4,12.2,95,85,49,29.71,28.94,4,1,6,0.26
2013-12-10,33.1,30.2,23.0,31.0,27.5,16.9,92,90,77,29.29,28.82,1,0,2,0.01
2013-12-11,31.8,24.0,19.4,19.1,16.1,14.0,83,72,58,29.66,29.12,0,0,0,0.00
2013-12-12,25.2,18.8,10.0,14.4,3.3,-5.9,77,53,26,29.74,29.12,0,0,0,0.00
2013-12-13,30.9,22.0,9.7,13.2,6.4,-1.3,65,51,38,29.55,29.07,0,0,0,0.00
2013-12-14,28.0,15.6,10.8,23.5,-0.6,-14.0,84,50,26,29.96,29.21,0,0,0,0.00
2013-12-15,37.0,28.1,21.2,34.4,23.6,16.3,91,83,73,29.21,28.53,16,1,24,0.28
2013-12-16,29.7,22.8,12.4,19.4,8.3,-1.7,83,56,27,29.44,28.88,0,0,0,0.00
2013-12-17,19.2,12.3,0.9,12.3,3.5,-9.3,74,67,54,29.74,29.08,8,1,11,0.00
2013-12-18,34.7,24.1,16.0,18.3,14.0,8.4,78,66,44,29.39,28.85,9,2,13,0.00
2013-12-19,44.1,31.9,19.9,25.0,19.9,13.3,76,62,43,29.55,28.91,7,1,10,0.05
2013-12-20,53.1,39.9,29.8,35.5,29.5,24.5,82,67,46,29.54,28.83,5,1,8,0.11
2013-12-21,57.7,46.9,37.0,45.7,40.5,31.3,93,79,63,29.33,28.92,4,1,7,0.00
2013-12-22,66.4,50.5,36.7,59.0,47.0,34.3,96,88,63,29.18,28.82,14,2,17,0.00
2013-12-23,37.8,35.2,33.4,36.7,33.2,31.6,96,92,91,29.40,28.94,8,1,10,0.54
2013-12-24,37.9,32.7,26.2,37.2,20.7,11.5,97,63,40,29.50,28.93,9,2,12,0.01
2013-12-25,26.2,18.9,13.6,11.5,-1.9,-11.1,63,40,25,29.82,29.14,12,2,16,0.00
2013-12-26,34.2,25.5,14.2,27.8,17.1,2.6,86,71,56,29.85,29.22,2,0,4,0.00
2013-12-27,36.0,26.4,19.0,21.1,16.4,13.1,83,67,44,29.74,29.16,2,0,6,0.02
2013-12-28,46.9,31.5,20.3,26.8,20.7,15.0,82,66,38,29.57,28.99,5,1,11,0.01
2013-12-29,43.0,35.5,27.5,40.7,30.9,20.5,96,83,62,29.36,28.30,14,2,17,0.87
2013-12-30,39.7,31.7,19.9,37.4,20.9,4.2,96,67,37,29.44,28.51,7,1,11,0.01
2013-12-31,26.1,19.4,14.4,10.5,0.4,-10.6,66,44,28,29.58,29.13,6,1,8,0.00
2014-1-1,28.8,20.8,14.0,7.9,1.9,-2.0,58,44,27,29.84,29.32,6,1,10,0.00
2014-1-2,21.4,14.0,1.2,13.7,5.3,-9.6,76,67,51,29.73,28.92,14,4,20,0.00